Regional Weather Roundup
Issued by NWS

Home | Current Version | Previous Version | Graphics & Text | Print | Product List | Glossary On
Versions: 1 2 3 4 5 6 7 8 9 10 11 12 13 14 15 16 17 18 19 20 21 22 23 24 25 26 27 28 29 30 31 32 33 34 35 36 37 38 39 40 41 42 43 44 45 46 47 48 49 50
293
ASUS45 KBOI 171410
RWRID

IDAHO REGIONAL WEATHER ROUNDUP
NATIONAL WEATHER SERVICE BOISE ID
700 AM MST SAT FEB 17 2018

NOTE: "FAIR" INDICATES FEW OR NO CLOUDS BELOW 12000 FEET
WITH NO SIGNIFICANT WEATHER AND/OR OBSTRUCTIONS TO VISIBILITY

IDZ012-014-171500-
SOUTHWEST IDAHO


CITY           SKY/WX    TMP DP  RH WIND       PRES   REMARKS
BOISE          CLOUDY    34  27  75 SE9       30.12F WCI  27
CALDWELL       CLOUDY    32  28  85 E5        30.12F WCI  27
MOUNTAIN HOME  CLOUDY    28  28 100 E6        30.14F WCI  21
$$

IDZ016-017-171500-
SOUTHCENTRAL IDAHO


CITY           SKY/WX    TMP DP  RH WIND       PRES   REMARKS
BURLEY         CLOUDY    33  24  69 W9        30.12S WCI  25
JEROME         CLEAR     30  22  72 S3        30.13F
TWIN FALLS     PTCLDY    29  22  75 S12       30.13F WCI  19
$$

IDZ019>023-171500-
SOUTHEAST IDAHO


CITY           SKY/WX    TMP DP  RH WIND       PRES   REMARKS
IDAHO FALLS    CLOUDY    28  22  78 SW21      30.08F WCI  15
POCATELLO      MOCLDY    34  24  67 SW15      30.11F WCI  24
REXBURG        CLOUDY    25  21  85 SW7       30.06R WCI  17
$$

IDZ006-010-011-018-031-032-171500-
CENTRAL IDAHO MOUNTAINS


CITY           SKY/WX    TMP DP  RH WIND       PRES   REMARKS
MCCALL         CLOUDY    24  21  88 CALM      29.99F
HAILEY         MOCLDY    19  14  79 W7        30.09S WCI  10
STANLEY          N/A     20  13  74 E3        30.03F
SALMON         MOCLDY    27  23  85 CALM      29.98F
CHALLIS        PTCLDY    26  15  63 S6        29.99F WCI  19
$$

IDZ002-004-006-007-026-171500-
NORTHERN IDAHO


CITY           SKY/WX    TMP DP  RH WIND       PRES   REMARKS
LEWISTON       CLOUDY    37  36  96 CALM      29.95F
LOWELL           N/A     33  32  96 CALM      30.02F
COEUR D`ALENE  LGT SNOW  29  28  96 NE5       29.91F VSB 1   WCI  24
MULLAN PASS    LGT SNOW  18  17  96 VRB5      29.76F FOG     WCI  11
$$




USA.gov is the U.S. government's official web portal to all federal, state and local government web resources and services.